Location: Lango�lan
(48.1202°N, 3.2340°W)
Time: 23:21:26
(UTC+00:00)

Cosmos 1726 Rocket - Pass Details

Date: 23 October 2019
Orbit: 602 x 631 km, 82.5° (Epoch: 12 November)

Event Time Altitude Azimuth Distance (km) Brightness Sun altitude
Rises 04:08:06 0° 354° (N) 2,867 7.1 -26.5°
Reaches altitude 10° 04:10:22 10° 359° (N) 1,958 6.2 -26.1°
Maximum altitude 04:14:37 55° 77° (ENE) 730 4.1 -25.4°
Drops below altitude 10° 04:18:50 10° 156° (SSE) 1,946 6.2 -24.7°
Sets 04:21:05 0° 161° (SSE) 2,847 7.1 -24.4°
